Location: São Paulo
(23.5507°S, 46.6334°W)
Time: 09:55:33
(UTC-03:00)

Transit 4A - Pass Details

Date: 16 February 2026
Orbit: 864 x 977 km, 66.8° (Epoch: 11 March)

Event Time Altitude Azimuth Distance (km) Brightness Sun altitude
Rises 15:08:58 0° 342° (NNW) 3,658 11.2 48.5°
Reaches altitude 10° 15:11:31 10° 343° (NNW) 2,715 10.7 47.9°
Maximum altitude 15:17:53 80° 69° (ENE) 989 8.8 46.5°
Drops below altitude 10° 15:24:13 10° 155° (SSE) 2,697 10.2 45.0°
Sets 15:26:45 0° 155° (SSE) 3,633 10.8 44.5°
